Alliance, NE

5:59 PM MST on January 21, 2017 (GMT -0700)
Alliance

Weather History for KAIA - April, 2014

Change the Weather History Date:

Saturday, April 12, 2014

  Actual Average Record
Temperature  
Mean Temperature 48 °F 44 °F  
Max Temperature 67 °F 59 °F 84 °F (1931)
Min Temperature 28 °F 29 °F -3 °F (1997)
Degree Days  
Heating Degree Days 17 21  
Month to date heating degree days 274 269  
Since 1 July heating degree days 6755 6555  
Cooling Degree Days 0 0  
Month to date cooling degree days 0 0  
Year to date cooling degree days 0 0  
Moisture  
Dew Point 31 °F    
Average Humidity 57    
Maximum Humidity 89    
Minimum Humidity 24    
Precipitation  
Precipitation 0.00 in 0.05 in 1.01 in (1927)
Month to date precipitation 0.01 0.49  
Year to date precipitation 1.75 1.90  
Sea Level Pressure  
Sea Level Pressure 29.69 in    
Wind  
Wind Speed 15 mph (NNE)    
Max Wind Speed 31 mph    
Max Gust Speed 39 mph    
Visibility 10 miles    
Events      
T = Trace of Precipitation, MM = Missing Value Source: NWS Daily Summary

Daily Weather History Graph

Daily Weather History Graph

Search for Another Location

Airport or City:

Trip Planner

Search our weather history database for the weather conditions in past years. The results will help you decide how hot, cold, wet, or windy it might be!

Date:

Astronomy

Apr. 12, 2014 Rise Set
Actual Time 6:15 AM MDT 7:29 PM MDT
Civil Twilight 5:46 AM MDT 7:58 PM MDT
Nautical Twilight 5:12 AM MDT 8:32 PM MDT
Astronomical Twilight 4:35 AM MDT 9:09 PM MDT
Moon 5:07 PM MDT (4/12) 4:46 AM MDT (4/12)
Length of Visible Light 14h 11m
Length of Day
13h 13m
Waxing Gibbous, 93% of the Moon is Illuminated
Apr 12
Waxing Gibbous
Apr 15
Full
Apr 22
Last Quarter
Apr 29
New
May 6
First Quarter

Hourly Weather History & Observations

Time (MDT) Temp. Windchill Dew Point Humidity Pressure Visibility Wind Dir Wind Speed Gust Speed Precip Events Conditions
12:53 AM 37.0 °F 33.3 °F 30.9 °F 79% 29.65 in 10.0 mi WNW 4.6 mph - N/A   Clear
1:53 AM 34.0 °F 26.6 °F 30.0 °F 85% 29.64 in 10.0 mi West 9.2 mph - N/A   Clear
2:53 AM 35.1 °F 29.3 °F 28.9 °F 78% 29.63 in 10.0 mi West 6.9 mph - N/A   Clear
3:53 AM 32.0 °F 25.6 °F 28.0 °F 85% 29.66 in 10.0 mi West 6.9 mph - N/A   Clear
4:53 AM 28.9 °F 21.9 °F 25.0 °F 85% 29.67 in 10.0 mi West 6.9 mph - N/A   Clear
5:53 AM 33.1 °F 27.7 °F 28.0 °F 82% 29.66 in 10.0 mi West 5.8 mph - N/A   Clear
6:53 AM 34.0 °F 27.2 °F 30.0 °F 85% 29.68 in 10.0 mi West 8.1 mph - N/A   Clear
7:53 AM 42.1 °F 39.2 °F 34.0 °F 73% 29.71 in 10.0 mi NW 4.6 mph - N/A   Clear
8:53 AM 53.1 °F - 35.1 °F 50% 29.70 in 10.0 mi North 12.7 mph - N/A   Clear
9:53 AM 57.9 °F - 36.0 °F 44% 29.69 in 10.0 mi NNE 16.1 mph - N/A   Clear
10:53 AM 63.0 °F - 33.1 °F 33% 29.71 in 10.0 mi NE 17.3 mph 24.2 mph N/A   Clear
11:53 AM 64.9 °F - 30.0 °F 27% 29.70 in 10.0 mi NE 17.3 mph 24.2 mph N/A   Clear
12:53 PM 64.0 °F - 28.9 °F 27% 29.68 in 10.0 mi East 15.0 mph - N/A   Clear
1:53 PM 66.0 °F - 28.9 °F 25% 29.68 in 10.0 mi ENE 11.5 mph 19.6 mph N/A   Clear
2:53 PM 64.9 °F - 28.0 °F 25% 29.67 in 10.0 mi NE 9.2 mph - N/A   Clear
3:53 PM 64.0 °F - 28.9 °F 27% 29.66 in 10.0 mi ENE 17.3 mph - N/A   Clear
4:53 PM 62.1 °F - 30.0 °F 30% 29.69 in 10.0 mi ENE 16.1 mph 26.5 mph N/A   Partly Cloudy
5:53 PM 61.0 °F - 28.9 °F 30% 29.70 in 10.0 mi NE 21.9 mph 27.6 mph N/A   Mostly Cloudy
6:53 PM 55.9 °F - 30.9 °F 39% 29.73 in 10.0 mi NE 23.0 mph 29.9 mph N/A   Mostly Cloudy
7:53 PM 54.0 °F - 32.0 °F 43% 29.73 in 10.0 mi NE 20.7 mph 27.6 mph N/A   Clear
8:53 PM 51.1 °F - 30.9 °F 46% 29.73 in 10.0 mi NNE 20.7 mph 27.6 mph N/A   Mostly Cloudy
9:53 PM 48.9 °F - 32.0 °F 52% 29.76 in 10.0 mi NNE 18.4 mph - N/A   Overcast
10:53 PM 46.0 °F 38.0 °F 34.0 °F 63% 29.75 in 10.0 mi NNE 21.9 mph - N/A   Mostly Cloudy
11:53 PM 45.0 °F 35.8 °F 34.0 °F 65% 29.75 in 10.0 mi NE 26.5 mph 35.7 mph N/A   Overcast